Flag for France Weather past 2 weeks in Amsterdam Island, French Southern Territories, France

Now
47 °F

Cool.


Feels Like: 43 °F
Forecast: 53 / 56 °F
Wind: 9 mph from Southwest

Location: Martin De Vivies Ile Amsterdam

Current Time: Aug 30, 2014 at 5:20:40 AM

Latest Report: Aug 30, 2014 at 4:00 AM


Visibility: N/A

Pressure: 30.45 "Hg

Humidity: 82%

Dew point: 42 °F

Location of Amsterdam IslandLocation

Historic Weather in Amsterdam Island — Graph

°F

Amsterdam Island temperature yesterday

Maximum temperature yesterday: 52 °F (at 2:00 PM)
Minimum temperature yesterday: 47 °F (at 3:00 AM)
Average temperature yesterday: 49 °F

Past Weeks' High & Low Weather Summary

 TemperatureHumidityPressure
High57 °F (Aug 26, 12:00 PM)98% (Aug 26, 3:00 AM)30.45 "Hg (Aug 26, 3:00 AM)
Low44 °F (Aug 28, 12:00 AM)57% (Aug 22, 12:00 PM)29.32 "Hg (Aug 21, 10:00 PM)
Average50 °F77%29.89 "Hg
* Reported Aug 20 11:00 AM — Aug 30 4:00 AM, Amsterdam Island, Weather by CustomWeather, © 2014

Note: Actual official high and low records may vary slightly from our data, if they occured in-between our weather recording intervals... More about our weather records

Advertising

Amsterdam Island weather history for previous 24 hours

 ConditionsComfort  
Time TempWeatherWind HumidityBarometerVisibility
4:00 AM
Aug 30
47 °FCool.9 mph82%30.45 "HgN/A
3:00 AM44 °FQuite cool.10 mph81%30.45 "HgN/A
2:00 AM46 °FCool.10 mph82%30.45 "HgN/A
12:00 AM47 °FCool.6 mph76%30.45 "HgN/A
11:00 PM
Aug 29
48 °FCool.3 mph74%30.44 "HgN/A
10:00 PM48 °FCool.6 mph68%30.45 "HgN/A
9:00 PM49 °FCool.10 mph69%30.42 "HgN/A
8:00 PM49 °FCool.7 mph75%30.42 "HgN/A
7:00 PM48 °FCool.5 mph69%30.40 "HgN/A
6:00 PM47 °FCool.7 mph66%30.38 "HgN/A
5:00 PM49 °FCool.7 mph66%30.36 "HgN/A
4:00 PM50 °FCool.9 mph67%30.35 "HgN/A
3:00 PM51 °FCool.9 mph66%30.33 "HgN/A
2:00 PM52 °FCool.8 mph58%30.32 "HgN/A
1:00 PM51 °FCool.7 mph60%30.32 "HgN/A
11:00 AM51 °FCool.9 mph60%30.32 "HgN/A
10:00 AM51 °FCool.9 mph63%30.31 "HgN/A
9:00 AM51 °FCool.8 mph65%30.30 "HgN/A
8:00 AM49 °FCool.6 mph68%30.29 "HgN/A
7:00 AM48 °FCool.8 mph71%30.27 "HgN/A
6:00 AM47 °FCool.7 mph73%30.26 "HgN/A
5:00 AM48 °FCool.7 mph68%30.24 "HgN/A
Weather by CustomWeather, © 2014

See weather overviewHow to use our weather pages